Troy, AL

1:58 PM CDT on August 30, 2016 (GMT -0500)
Troy Municipal

Weather History for KTOI - April, 2013

Change the Weather History Date:

Saturday, April 20, 2013

  Actual Average Record
Temperature  
Mean Temperature 52 °F 64 °F  
Max Temperature 67 °F 78 °F 88 °F (2002)
Min Temperature 37 °F 51 °F 37 °F (2013)
Degree Days  
Heating Degree Days 13 3  
Month to date heating degree days 94 92  
Since 1 July heating degree days 2129 2293  
Cooling Degree Days 0 2  
Month to date cooling degree days 45 31  
Year to date cooling degree days 70 50  
Growing Degree Days 2 (Base 50)    
Moisture  
Dew Point 39 °F    
Average Humidity 65    
Maximum Humidity 100    
Minimum Humidity 29    
Precipitation  
Precipitation 0.00 in 0.14 in 0.54 in (2006)
Month to date precipitation 2.51 3.07  
Year to date precipitation 21.58 18.23  
Snow  
Snow 0.00 in - - ()
Month to date snowfall 0.0  
Since 1 July snowfall 0.0  
Snow Depth 0.00 in    
Sea Level Pressure  
Sea Level Pressure 30.19 in    
Wind  
Wind Speed 5 mph (North)    
Max Wind Speed 16 mph    
Max Gust Speed 24 mph    
Visibility 8 miles    
Events Fog    
T = Trace of Precipitation, MM = Missing Value Source: NWS Daily Summary

Daily Weather History Graph

Daily Weather History Graph

Search for Another Location

Airport or City:

Trip Planner

Search our weather history database for the weather conditions in past years. The results will help you decide how hot, cold, wet, or windy it might be!

Date:

Astronomy

Apr. 20, 2013 Rise Set
Actual Time 6:09 AM CDT 7:16 PM CDT
Civil Twilight 5:44 AM CDT 7:42 PM CDT
Nautical Twilight 5:14 AM CDT 8:12 PM CDT
Astronomical Twilight 4:43 AM CDT 8:43 PM CDT
Moon 2:18 PM CDT (4/20) 2:38 AM CDT (4/20)
Length of Visible Light 13h 58m
Length of Day
13h 07m
Waxing Gibbous, 71% of the Moon is Illuminated
Apr 20
Waxing Gibbous
Apr 25
Full
May 2
Last Quarter
May 9
New
May 17
First Quarter

Hourly Weather History & Observations

Time (CDT) Temp. Windchill Dew Point Humidity Pressure Visibility Wind Dir Wind Speed Gust Speed Precip Events Conditions
12:49 AM 42.8 °F - 42.8 °F 100% 30.15 in 1.5 mi Calm Calm - N/A   Clear
12:51 AM 42.8 °F - 42.8 °F 100% 30.14 in 1.0 mi Calm Calm - N/A   Clear
12:53 AM 43.0 °F - 42.1 °F 97% 30.14 in 0.8 mi Calm Calm - N/A   Clear
1:00 AM 42.8 °F - 41.0 °F 93% 30.15 in 0.5 mi Calm Calm - N/A Fog Fog
1:18 AM 42.8 °F - 41.0 °F 93% 30.15 in 1.0 mi Calm Calm - N/A   Clear
1:20 AM 42.8 °F - 41.0 °F 93% 30.15 in 1.8 mi Calm Calm - N/A   Clear
1:22 AM 42.8 °F - 41.0 °F 93% 30.15 in 4.0 mi Calm Calm - N/A   Clear
1:53 AM 42.1 °F 39.2 °F 39.9 °F 92% 30.15 in 10.0 mi NW 4.6 mph - N/A   Clear
2:53 AM 42.1 °F 39.2 °F 39.0 °F 89% 30.16 in 10.0 mi NNW 4.6 mph - N/A   Clear
3:53 AM 41.0 °F 36.4 °F 37.9 °F 89% 30.16 in 10.0 mi NNW 6.9 mph - N/A   Clear
4:53 AM 39.9 °F 36.7 °F 37.0 °F 89% 30.17 in 10.0 mi North 4.6 mph - N/A   Clear
5:53 AM 39.0 °F 36.8 °F 36.0 °F 89% 30.19 in 10.0 mi North 3.5 mph - N/A   Clear
6:53 AM 39.0 °F 36.8 °F 36.0 °F 89% 30.22 in 10.0 mi NNW 3.5 mph - N/A   Clear
7:53 AM 45.0 °F 41.8 °F 39.0 °F 80% 30.24 in 10.0 mi NNW 5.8 mph - N/A   Clear
8:53 AM 50.0 °F - 37.0 °F 61% 30.25 in 10.0 mi NE 10.4 mph - N/A   Clear
9:53 AM 53.1 °F - 37.9 °F 57% 30.26 in 10.0 mi NE 8.1 mph 16.1 mph N/A   Clear
10:53 AM 57.0 °F - 36.0 °F 45% 30.26 in 10.0 mi NNE 8.1 mph 18.4 mph N/A   Clear
11:53 AM 57.9 °F - 35.1 °F 42% 30.25 in 10.0 mi Variable 5.8 mph 16.1 mph N/A   Clear
12:53 PM 61.0 °F - 35.1 °F 38% 30.22 in 10.0 mi NNE 10.4 mph - N/A   Clear
1:53 PM 64.0 °F - 36.0 °F 35% 30.20 in 10.0 mi North 11.5 mph 18.4 mph N/A   Clear
2:53 PM 64.0 °F - 36.0 °F 35% 30.17 in 10.0 mi NNW 6.9 mph 17.3 mph N/A   Clear
3:53 PM 66.0 °F - 35.1 °F 32% 30.16 in 10.0 mi North 10.4 mph 17.3 mph N/A   Clear
4:50 PM 66.2 °F - 33.8 °F 30% 30.16 in 10.0 mi NE 9.2 mph - N/A   Partly Cloudy
4:53 PM 66.0 °F - 33.1 °F 29% 30.16 in 10.0 mi NNE 9.2 mph - N/A   Partly Cloudy
5:53 PM 64.9 °F - 33.1 °F 31% 30.15 in 10.0 mi NNE 9.2 mph - N/A   Clear
6:53 PM 61.0 °F - 37.0 °F 41% 30.16 in 10.0 mi NNE 3.5 mph - N/A   Clear
7:53 PM 53.1 °F - 44.1 °F 71% 30.18 in 10.0 mi Calm Calm - N/A   Clear
8:53 PM 48.9 °F - 43.0 °F 80% 30.21 in 10.0 mi Calm Calm - N/A   Clear
9:53 PM 46.9 °F - 43.0 °F 86% 30.22 in 10.0 mi Calm Calm - N/A   Clear
10:53 PM 44.1 °F - 42.1 °F 93% 30.23 in 7.0 mi Calm Calm - N/A   Clear
11:53 PM 43.0 °F - 41.0 °F 93% 30.23 in 10.0 mi Calm Calm - N/A   Clear